TimeCST,TemperatureF,Dew PointF,Humidity,Sea Level PressureIn,VisibilityMPH,Wind Direction,Wind SpeedMPH,Gust SpeedMPH,PrecipitationIn,Events,Conditions,WindDirDegrees,DateUTC
12:15 AM,32.0,21.2,64,30.28,10.0,NNW,10.4,-,N/A,,Clear,340,2013-01-24 06:15:00
12:35 AM,32.0,21.2,64,30.30,10.0,NNW,9.2,-,N/A,,Clear,340,2013-01-24 06:35:00
12:55 AM,30.2,21.2,69,30.31,10.0,NNW,8.1,-,N/A,,Clear,340,2013-01-24 06:55:00
1:15 AM,30.2,19.4,64,30.33,10.0,NNW,11.5,17.3,N/A,,Clear,340,2013-01-24 07:15:00
1:35 AM,30.2,15.8,55,30.33,10.0,NNW,16.1,23.0,N/A,,Clear,340,2013-01-24 07:35:00
1:55 AM,28.4,15.8,59,30.35,10.0,NNW,10.4,19.6,N/A,,Clear,340,2013-01-24 07:55:00
2:15 AM,28.4,17.6,64,30.36,10.0,NNW,10.4,-,N/A,,Clear,340,2013-01-24 08:15:00
2:35 AM,28.4,17.6,64,30.38,10.0,NNW,11.5,-,N/A,,Clear,340,2013-01-24 08:35:00
2:55 AM,28.4,17.6,64,30.39,10.0,North,9.2,-,N/A,,Clear,350,2013-01-24 08:55:00
3:15 AM,26.6,15.8,64,30.40,10.0,North,10.4,23.0,N/A,,Scattered Clouds,360,2013-01-24 09:15:00
3:35 AM,26.6,15.8,64,30.41,10.0,North,12.7,19.6,N/A,,Scattered Clouds,10,2013-01-24 09:35:00
3:55 AM,24.8,14.0,64,30.41,10.0,NNE,12.7,19.6,N/A,,Clear,20,2013-01-24 09:55:00
4:15 AM,23.0,12.2,63,30.42,10.0,North,13.8,21.9,N/A,,Clear,10,2013-01-24 10:15:00
4:35 AM,23.0,12.2,63,30.43,10.0,North,12.7,17.3,N/A,,Clear,10,2013-01-24 10:35:00
4:55 AM,21.2,10.4,63,30.45,10.0,North,11.5,-,N/A,,Clear,10,2013-01-24 10:55:00
5:15 AM,21.2,10.4,63,30.47,10.0,North,11.5,16.1,N/A,,Clear,10,2013-01-24 11:15:00
5:35 AM,21.2,10.4,63,30.48,10.0,NNE,10.4,18.4,N/A,,Clear,20,2013-01-24 11:35:00
5:55 AM,21.2,10.4,63,30.49,10.0,North,11.5,18.4,N/A,,Clear,10,2013-01-24 11:55:00
6:15 AM,21.2,12.2,68,30.51,10.0,NNE,11.5,16.1,N/A,,Clear,20,2013-01-24 12:15:00
6:35 AM,21.2,10.4,63,30.52,10.0,NNE,15.0,20.7,N/A,,Clear,30,2013-01-24 12:35:00
6:55 AM,19.4,8.6,63,30.52,10.0,NNE,15.0,20.7,N/A,,Clear,20,2013-01-24 12:55:00
7:15 AM,19.4,8.6,63,30.52,10.0,NNE,11.5,18.4,N/A,,Clear,20,2013-01-24 13:15:00
7:35 AM,19.4,5.0,54,30.52,10.0,NNE,11.5,-,N/A,,Clear,30,2013-01-24 13:35:00
7:55 AM,21.2,6.8,54,30.53,10.0,NNE,10.4,-,N/A,,Clear,20,2013-01-24 13:55:00
8:15 AM,21.2,5.0,50,30.54,10.0,NNE,11.5,-,N/A,,Clear,20,2013-01-24 14:15:00
8:35 AM,21.2,5.0,50,30.54,10.0,NNE,11.5,-,N/A,,Clear,20,2013-01-24 14:35:00
8:55 AM,23.0,5.0,46,30.56,10.0,NNE,15.0,-,N/A,,Clear,30,2013-01-24 14:55:00
9:15 AM,23.0,5.0,46,30.56,10.0,NE,13.8,17.3,N/A,,Clear,40,2013-01-24 15:15:00
9:35 AM,23.0,6.8,50,30.57,10.0,NNE,16.1,-,N/A,,Clear,30,2013-01-24 15:35:00
9:55 AM,23.0,8.6,54,30.57,10.0,NE,11.5,19.6,N/A,,Clear,40,2013-01-24 15:55:00
10:15 AM,23.0,8.6,54,30.59,10.0,NE,11.5,19.6,N/A,,Clear,40,2013-01-24 16:15:00
10:35 AM,24.8,10.4,54,30.59,10.0,NE,13.8,-,N/A,,Clear,40,2013-01-24 16:35:00
10:55 AM,26.6,10.4,51,30.58,10.0,NE,9.2,17.3,N/A,,Clear,50,2013-01-24 16:55:00
11:15 AM,26.6,10.4,51,30.57,10.0,NE,10.4,-,N/A,,Clear,50,2013-01-24 17:15:00
11:35 AM,26.6,10.4,51,30.56,10.0,ENE,12.7,18.4,N/A,,Clear,70,2013-01-24 17:35:00
11:55 AM,28.4,10.4,47,30.56,10.0,ENE,11.5,17.3,N/A,,Clear,70,2013-01-24 17:55:00
12:15 PM,28.4,10.4,47,30.54,10.0,ENE,12.7,-,N/A,,Clear,70,2013-01-24 18:15:00
12:35 PM,28.4,12.2,51,30.52,10.0,East,12.7,17.3,N/A,,Clear,80,2013-01-24 18:35:00
12:55 PM,30.2,12.2,47,30.52,10.0,East,10.4,16.1,N/A,,Clear,80,2013-01-24 18:55:00
1:15 PM,28.4,12.2,51,30.51,10.0,East,11.5,18.4,N/A,,Clear,80,2013-01-24 19:15:00
1:35 PM,28.4,12.2,51,30.50,10.0,ENE,11.5,-,N/A,,Clear,60,2013-01-24 19:35:00
1:55 PM,28.4,12.2,51,30.50,10.0,ENE,10.4,18.4,N/A,,Clear,60,2013-01-24 19:55:00
2:15 PM,30.2,12.2,47,30.48,10.0,ENE,13.8,-,N/A,,Clear,70,2013-01-24 20:15:00
2:35 PM,30.2,10.4,44,30.47,10.0,ENE,13.8,19.6,N/A,,Clear,70,2013-01-24 20:35:00
2:55 PM,30.2,10.4,44,30.46,10.0,East,12.7,-,N/A,,Clear,80,2013-01-24 20:55:00
3:15 PM,30.2,10.4,44,30.46,10.0,East,15.0,-,N/A,,Clear,90,2013-01-24 21:15:00
3:35 PM,28.4,10.4,47,30.45,10.0,East,13.8,17.3,N/A,,Clear,90,2013-01-24 21:35:00
3:55 PM,28.4,10.4,47,30.46,10.0,ENE,12.7,-,N/A,,Clear,70,2013-01-24 21:55:00
4:15 PM,28.4,12.2,51,30.44,10.0,East,11.5,17.3,N/A,,Clear,80,2013-01-24 22:15:00
4:35 PM,28.4,10.4,47,30.44,10.0,ENE,12.7,-,N/A,,Clear,70,2013-01-24 22:35:00
4:55 PM,28.4,10.4,47,30.44,10.0,ENE,9.2,-,N/A,,Clear,70,2013-01-24 22:55:00
5:15 PM,28.4,10.4,47,30.43,10.0,East,9.2,-,N/A,,Clear,80,2013-01-24 23:15:00
5:35 PM,28.4,12.2,51,30.44,10.0,East,9.2,-,N/A,,Clear,80,2013-01-24 23:35:00
5:55 PM,28.4,12.2,51,30.43,10.0,East,9.2,-,N/A,,Clear,80,2013-01-24 23:55:00
6:15 PM,28.4,12.2,51,30.44,10.0,East,9.2,-,N/A,,Clear,90,2013-01-25 00:15:00
6:35 PM,28.4,10.4,47,30.42,10.0,East,8.1,-,N/A,,Clear,90,2013-01-25 00:35:00
6:55 PM,28.4,12.2,51,30.43,10.0,East,9.2,-,N/A,,Clear,90,2013-01-25 00:55:00
7:15 PM,28.4,10.4,47,30.41,10.0,East,9.2,-,N/A,,Clear,100,2013-01-25 01:15:00
7:35 PM,28.4,8.6,43,30.40,10.0,ESE,10.4,-,N/A,,Clear,110,2013-01-25 01:35:00
7:55 PM,28.4,8.6,43,30.39,10.0,East,10.4,-,N/A,,Clear,100,2013-01-25 01:55:00
8:15 PM,26.6,8.6,47,30.37,10.0,East,10.4,-,N/A,,Clear,100,2013-01-25 02:15:00
8:35 PM,28.4,8.6,43,30.37,10.0,East,9.2,-,N/A,,Scattered Clouds,100,2013-01-25 02:35:00
8:55 PM,28.4,6.8,40,30.37,10.0,ESE,10.4,-,N/A,,Mostly Cloudy,110,2013-01-25 02:55:00
9:15 PM,28.4,8.6,43,30.37,10.0,East,8.1,-,N/A,,Overcast,100,2013-01-25 03:15:00
9:35 PM,28.4,6.8,40,30.36,10.0,East,12.7,-,N/A,,Overcast,100,2013-01-25 03:35:00
9:55 PM,28.4,5.0,37,30.34,10.0,East,12.7,-,N/A,,Overcast,100,2013-01-25 03:55:00
10:15 PM,28.4,5.0,37,30.33,10.0,ESE,12.7,17.3,N/A,,Overcast,120,2013-01-25 04:15:00
10:35 PM,28.4,6.8,40,30.34,10.0,ESE,9.2,-,N/A,,Overcast,120,2013-01-25 04:35:00
10:55 PM,28.4,6.8,40,30.32,10.0,ESE,10.4,-,N/A,,Overcast,110,2013-01-25 04:55:00
11:15 PM,28.4,6.8,40,30.31,10.0,ESE,10.4,-,N/A,,Overcast,110,2013-01-25 05:15:00
11:35 PM,28.4,5.0,37,30.29,10.0,ESE,12.7,-,N/A,,Overcast,120,2013-01-25 05:35:00
11:55 PM,28.4,6.8,40,30.28,10.0,ESE,11.5,-,N/A,,Overcast,120,2013-01-25 05:55:00